EW6438 Weather Reports


time (UTC)temp
C
wind
direction
speed
KPH
gust
KPH
rain 1hr
cm
rain 24hr
cm
rain mn
cm
humidity
%
barometer
mb
20260506202009 6 301 4.8 11.3 0.03 2.57 2.13 94 1006.7
20260506201522 6 294 3.2 6.4 0.03 2.57 2.13 94 1006.6
20260506201003 6 297 3.2 6.4 0.05 2.57 2.13 94 1006.5
20260506200506 6 290 1.6 9.7 0.05 2.57 2.13 95 1006.5
20260506200005 6 279 3.2 9.7 0.05 2.57 2.13 94 1006.5
20260506195507 5 289 3.2 6.4 0.05 2.57 2.13 94 1006.5
20260506195004 5 279 3.2 9.7 0.05 2.57 2.13 94 1006.6
20260506194508 5 304 4.8 11.3 0.05 2.57 2.13 94 1006.6
20260506194009 5 281 3.2 11.3 0.08 2.57 2.13 94 1006.8
20260506193503 6 297 1.6 11.3 0.08 2.57 2.13 94 1006.8
20260506193010 6 237 4.8 11.3 0.05 2.57 2.11 94 1006.7
20260506192503 6 316 3.2 6.4 0.05 2.57 2.11 94 1006.5
20260506192003 6 268 1.6 4.8 0.05 2.59 2.11 94 1006.3
20260506191508 5 296 1.6 3.2 0.05 2.59 2.11 94 1006.4
20260506191004 5 261 0.0 3.2 0.03 2.57 2.08 94 1006.4
20260506190508 5 40 1.6 6.4 0.03 2.57 2.08 93 1006.3
20260506190007 5 293 3.2 6.4 0.03 2.59 2.08 94 1006.3
20260506185503 5 257 0.0 3.2 0.03 2.62 2.08 93 1006.2
20260506185002 5 152 0.0 4.8 0.03 2.64 2.08 94 1006.3
20260506184503 5 199 0.0 9.7 0.03 2.74 2.08 94 1006.3
20260506184005 5 286 1.6 9.7 0.00 2.87 2.06 94 1006.4
20260506183503 5 267 1.6 6.4 0.00 2.90 2.06 94 1006.4
20260506183012 5 242 3.2 6.4 0.00 2.90 2.06 94 1006.4
20260506182503 5 298 1.6 4.8 0.00 2.90 2.06 94 1006.2
20260506182005 5 101 1.6 4.8 0.00 2.90 2.06 94 1006.0
20260506181514 5 27 1.6 4.8 0.00 2.90 2.06 94 1005.9
20260506181008 5 161 0.0 4.8 0.00 2.90 2.06 94 1006.0
20260506180502 5 221 1.6 4.8 0.00 2.90 2.06 94 1006.1
20260506180023 5 94 0.0 9.7 0.00 2.90 2.06 94 1006.2
20260506175510 5 108 3.2 9.7 0.00 2.90 2.06 93 1006.3
20260506175002 5 126 1.6 3.2 0.03 2.90 2.06 94 1006.3
20260506174509 5 281 0.0 4.8 0.03 2.90 2.06 94 1006.3
20260506174002 5 129 1.6 4.8 0.03 2.90 2.06 93 1006.3
20260506173504 5 90 1.6 6.4 0.05 2.90 2.06 93 1006.2
20260506173008 5 281 1.6 6.4 0.05 2.90 2.06 93 1006.3
20260506172505 5 215 0.0 3.2 0.08 2.90 2.06 94 1006.3
20260506172010 5 142 1.6 3.2 0.10 2.90 2.06 94 1006.3
20260506171512 5 242 1.6 3.2 0.10 2.90 2.06 94 1006.4
20260506171004 5 264 0.0 3.2 0.13 2.90 2.06 94 1006.3
20260506170505 5 169 0.0 3.2 0.15 2.90 2.06 94 1006.4
20260506170019 5 156 0.0 3.2 0.18 2.90 2.06 94 1006.5
20260506165504 5 230 0.0 3.2 0.20 2.90 2.06 94 1006.5
20260506165004 5 263 1.6 3.2 0.18 2.87 2.03 94 1006.6
20260506164521 5 124 0.0 3.2 0.20 2.87 2.03 94 1006.5
20260506164009 4 266 1.6 3.2 0.23 2.87 2.03 94 1006.6
20260506163507 4 223 0.0 3.2 0.20 2.84 2.01 95 1006.7
20260506163018 4 173 0.0 4.8 0.23 2.84 2.01 94 1006.7
20260506162504 4 130 1.6 4.8 0.23 2.82 1.98 94 1006.8
20260506162006 4 262 0.0 3.2 0.23 2.79 1.96 94 1006.8
20260506161509 4 313 0.0 6.4 0.25 2.79 1.96 94 1006.8
20260506161009 4 107 0.0 9.7 0.23 2.77 1.93 94 1006.8
20260506160504 4 148 1.6 11.3 0.23 2.74 1.91 94 1006.7
20260506160010 3 182 1.6 11.3 0.23 2.72 1.88 94 1006.8
20260506155505 4 118 0.0 3.2 0.23 2.67 1.85 94 1006.9
20260506155009 4 122 0.0 6.4 0.25 2.67 1.85 94 1007.0
20260506154507 4 162 0.0 6.4 0.25 2.64 1.83 94 1007.0
20260506154004 4 225 0.0 6.4 0.25 2.64 1.80 94 1006.9
20260506153508 4 82 1.6 6.4 0.30 2.64 1.80 95 1006.8
20260506153024 3 306 3.2 6.4 0.30 2.62 1.78 94 1007.1
20260506152505 3 119 0.0 6.4 0.30 2.59 1.75 94 1006.7
20260506152008 3 117 1.6 6.4 0.30 2.57 1.73 94 1006.7
20260506151532 3 128 0.0 6.4 0.30 2.54 1.70 94 1006.7
20260506151007 3 125 0.0 3.2 0.33 2.54 1.70 94 1006.7
20260506150503 3 248 0.0 3.2 0.36 2.51 1.68 94 1006.8
20260506150010 3 150 0.0 3.2 0.36 2.49 1.65 94 1006.7
20260506145505 3 277 1.6 3.2 0.36 2.46 1.63 95 1006.8
20260506145002 3 186 0.0 4.8 0.36 2.44 1.60 94 1006.8
20260506144517 3 257 0.0 4.8 0.36 2.41 1.57 94 1006.8
20260506144013 3 201 1.6 4.8 0.36 2.39 1.55 95 1006.8
20260506143506 3 274 0.0 4.8 0.33 2.34 1.47 95 1006.8
20260506143017 3 294 3.2 6.4 0.33 2.31 1.47 94 1006.9
20260506142505 3 281 0.0 6.4 0.33 2.29 1.45 94 1007.0
20260506142006 3 257 0.0 6.4 0.33 2.26 1.42 94 1007.0
20260506141508 3 302 3.2 6.4 0.33 2.24 1.40 94 1007.0
20260506141003 3 219 1.6 6.4 0.36 2.21 1.37 94 1006.9
20260506140508 3 58 0.0 4.8 0.30 2.16 1.32 94 1007.0
20260506140030 3 206 0.0 4.8 0.30 2.13 1.30 94 1007.0
20260506135504 3 304 1.6 4.8 0.30 2.11 1.27 94 1006.8
20260506135007 3 259 1.6 4.8 0.30 2.08 1.24 94 1006.8
20260506134514 3 65 1.6 4.8 0.30 2.06 1.22 94 1006.9
20260506134006 3 212 0.0 6.4 0.30 2.03 1.19 94 1006.9
20260506133506 3 252 1.6 6.4 0.30 2.01 1.17 94 1006.9
20260506133031 3 312 3.2 6.4 0.30 1.98 1.14 94 1006.9
20260506132508 3 275 0.0 4.8 0.28 1.96 1.12 94 1006.9
20260506132007 3 319 0.0 4.8 0.28 1.93 1.09 94 1006.9
20260506131525 3 297 3.2 4.8 0.25 1.91 1.07 94 1006.8
20260506131009 3 265 0.0 4.8 0.23 1.85 1.02 93 1006.7
20260506130511 3 215 0.0 4.8 0.23 1.85 1.02 93 1006.9
20260506130018 3 80 0.0 9.7 0.23 1.83 0.99 93 1006.8
20260506125507 2 263 1.6 9.7 0.20 1.80 0.97 94 1006.8
20260506125009 2 184 1.6 14.5 0.20 1.78 0.94 93 1006.5
20260506124511 2 130 4.8 14.5 0.20 1.75 0.91 93 1006.6
20260506124006 2 128 6.4 11.3 0.18 1.73 0.89 92 1006.8
20260506123507 2 139 0.0 6.4 0.18 1.70 0.86 92 1006.9
20260506123028 2 130 1.6 4.8 0.18 1.68 0.84 92 1007.1
20260506122506 2 169 1.6 4.8 0.20 1.68 0.84 92 1007.1
20260506122010 2 107 0.0 4.8 0.18 1.65 0.81 93 1007.1
20260506121519 2 227 1.6 9.7 0.20 1.65 0.81 92 1007.0
20260506121010 2 140 1.6 12.9 0.23 1.63 0.79 92 1006.8
20260506120507 2 146 3.2 12.9 0.25 1.65 0.79 92 1006.8
20260506120035 2 171 3.2 14.5 0.25 1.63 0.76 93 1006.9
20260506115507 2 158 3.2 14.5 0.28 1.63 0.76 92 1007.2
20260506115006 2 148 1.6 14.5 0.28 1.60 0.74 92 1007.3
20260506114526 2 123 3.2 6.4 0.28 1.57 0.71 92 1007.7
20260506114006 2 236 1.6 6.4 0.28 1.57 0.71 92 1007.9
20260506113511 3 141 1.6 6.4 0.25 1.55 0.69 92 1008.0
20260506113018 3 217 0.0 4.8 0.23 1.52 0.66 92 1008.0
20260506112507 3 268 1.6 9.7 0.23 1.47 0.64 92 1008.1
20260506112006 3 321 1.6 9.7 0.25 1.47 0.64 93 1008.3
20260506111515 3 232 1.6 3.2 0.25 1.47 0.61 93 1008.1
20260506111006 3 98 0.0 6.4 0.23 1.42 0.56 93 1008.2
20260506110509 3 273 3.2 6.4 0.20 1.40 0.53 93 1008.1
20260506110022 3 286 0.0 3.2 0.18 1.37 0.51 92 1008.1
20260506105507 3 259 0.0 3.2 0.15 1.32 0.48 92 1008.0
20260506105007 3 217 0.0 3.2 0.15 1.32 0.46 92 1007.7
20260506104527 3 78 0.0 4.8 0.13 1.30 0.43 92 1007.6
20260506104008 3 212 1.6 4.8 0.15 1.30 0.43 92 1007.6
20260506103508 3 117 1.6 4.8 0.15 1.30 0.43 92 1007.5
20260506103032 3 184 0.0 3.2 0.15 1.30 0.43 93 1007.6
20260506102508 3 148 0.0 4.8 0.15 1.27 0.41 92 1007.8
20260506102006 3 42 1.6 4.8 0.13 1.24 0.38 92 1007.8
20260506101533 3 119 1.6 4.8 0.13 1.22 0.36 92 1007.6
20260506101014 3 224 0.0 4.8 0.10 1.19 0.33 92 1007.3
20260506100506 3 73 1.6 4.8 0.13 1.19 0.33 93 1007.7
20260506100029 3 317 1.6 9.7 0.15 1.19 0.33 92 1007.7
20260506095506 3 249 1.6 9.7 0.18 1.19 0.33 91 1007.6
20260506095009 3 234 1.6 4.8 0.15 1.19 0.30 92 1007.7
20260506094519 3 185 0.0 4.8 0.15 1.19 0.30 92 1007.8
20260506094004 3 260 1.6 4.8 0.13 1.17 0.28 92 1007.9
20260506093504 3 146 0.0 4.8 0.13 1.17 0.28 92 1008.0
20260506093009 3 293 1.6 4.8 0.13 1.17 0.28 92 1008.0
20260506092507 3 115 1.6 3.2 0.10 1.14 0.25 91 1007.8
20260506092003 3 232 0.0 4.8 0.10 1.14 0.25 92 1008.0
20260506091510 3 257 0.0 4.8 0.08 1.12 0.23 91 1008.1
20260506091004 3 281 1.6 8.0 0.08 1.12 0.23 91 1008.2
20260506090502 4 296 0.0 8.0 0.05 1.09 0.20 90 1008.3
20260506090006 4 277 1.6 4.8 0.03 1.07 0.18 90 1008.0
20260506085503 4 81 1.6 4.8 0.00 1.04 0.15 91 1007.8
20260506085010 4 117 0.0 3.2 0.00 1.04 0.15 91 1008.0
20260506084503 4 258 1.6 3.2 0.00 1.04 0.15 91 1008.2
20260506084003 4 248 0.0 3.2 0.00 1.04 0.15 92 1008.0
20260506083504 4 132 1.6 12.9 0.00 1.04 0.15 92 1008.0
20260506083003 5 172 1.6 12.9 0.03 1.04 0.15 93 1008.5
20260506082505 5 259 4.8 9.7 0.03 1.04 0.15 93 1008.8
20260506082003 5 330 3.2 6.4 0.03 1.04 0.15 94 1008.3
20260506081509 5 336 3.2 6.4 0.03 1.04 0.15 94 1008.3
20260506081003 5 287 0.0 4.8 0.03 1.04 0.15 94 1008.3
20260506080504 5 279 1.6 4.8 0.03 1.04 0.15 94 1008.5
20260506073503 5 82 0.0 3.2 0.03 1.17 0.15 94 1008.4
20260506073008 5 148 1.6 4.8 0.00 1.14 0.13 94 1008.5
20260506072504 5 86 0.0 4.8 0.00 1.14 0.13 94 1008.1
20260506072005 5 82 0.0 3.2 0.00 1.14 0.13 94 1008.6
20260506071507 5 316 0.0 3.2 0.00 1.14 0.13 94 1008.7
20260506071003 5 98 0.0 3.2 0.00 1.14 0.13 94 1008.3
20260506070504 5 107 0.0 3.2 0.00 1.14 0.13 94 1008.4
20260506062509 5 290 1.6 14.5 0.00 1.14 0.13 93 1008.8
20260506062005 5 289 8.0 14.5 0.03 1.14 0.13 94 1008.9
20260506061518 5 324 3.2 16.1 0.03 1.14 0.13 94 1008.7
20260506061004 5 323 3.2 16.1 0.03 1.14 0.13 94 1009.1
20260506060504 5 321 3.2 14.5 0.03 1.14 0.13 94 1009.1
20260506051004 6 271 0.0 6.4 0.10 1.12 0.10 94 1008.9
20260506050504 6 285 3.2 6.4 0.10 1.12 0.10 94 1009.1
20260506045005 6 300 0.0 6.4 0.08 1.07 0.05 94 1009.3
20260506044515 6 290 1.6 6.4 0.10 1.07 0.05 94 1009.7
20260506044005 6 271 1.6 4.8 0.10 1.07 0.05 94 1009.5
20260506043506 6 284 0.0 6.4 0.08 1.04 0.03 94 1009.4
20260506043014 6 326 1.6 6.4 0.10 1.04 0.03 94 1009.6
20260506042505 6 284 1.6 4.8 0.13 1.04 0.03 94 1009.7
20260506042006 6 317 1.6 4.8 0.13 1.04 0.03 94 1009.7
20260506041510 6 336 0.0 4.8 0.15 1.04 0.03 94 1009.7
20260506041005 6 281 1.6 4.8 0.13 1.02 0.00 94 1009.6
20260506040506 6 244 1.6 6.4 0.13 1.02 0.00 94 1009.2
20260506040018 6 264 0.0 9.7 0.15 1.02 0.00 94 1009.5
20260506035503 6 229 3.2 9.7 0.13 0.99 0.99 94 1010.1
20260506035007 6 279 0.0 4.8 0.13 0.99 0.99 94 1009.7
20260506034528 6 261 1.6 6.4 0.10 0.97 0.97 93 1009.7
20260506034003 6 317 1.6 6.4 0.10 0.97 0.97 93 1009.4
20260506033504 6 333 0.0 4.8 0.13 0.97 0.97 93 1009.1
20260506033014 6 281 0.0 9.7 0.15 0.94 0.94 93 1009.4
20260506032506 6 319 3.2 9.7 0.15 0.91 0.91 93 1009.9
20260506032006 7 315 4.8 9.7 0.15 0.91 0.91 93 1009.7
20260506031520 7 292 3.2 9.7 0.13 0.89 0.89 93 1009.1
20260506031007 7 304 4.8 9.7 0.13 0.89 0.89 93 1009.5
20260506030503 7 283 1.6 4.8 0.13 0.89 0.89 92 1009.0
20260506030017 7 317 0.0 11.3 0.13 0.86 0.86 93 1008.9
20260506025507 7 298 3.2 12.9 0.13 0.86 0.86 92 1009.0
20260506025010 7 306 4.8 12.9 0.13 0.86 0.86 93 1009.1
20260506024515 7 280 0.0 6.4 0.15 0.86 0.86 92 1009.2
20260506024010 7 302 1.6 8.0 0.15 0.86 0.86 92 1009.2
20260506023514 7 306 0.0 8.0 0.13 0.84 0.84 92 1009.2
20260506023013 7 309 3.2 8.0 0.08 0.79 0.79 92 1009.5
20260506022504 8 259 1.6 12.9 0.05 0.76 0.76 92 1009.4
20260506022016 8 281 4.8 12.9 0.08 0.76 0.76 92 1009.5
20260506021528 8 329 3.2 9.7 0.08 0.76 0.76 92 1009.5
20260506021004 8 261 1.6 6.4 0.08 0.76 0.76 92 1009.5
20260506020504 8 283 1.6 9.7 0.13 0.76 0.76 92 1009.5
20260506020020 8 236 0.0 9.7 0.10 0.74 0.74 92 1009.5
20260506015506 8 266 1.6 9.7 0.15 0.74 0.74 92 1009.4
20260506015010 8 281 1.6 6.4 0.15 0.74 0.74 92 1009.4
20260506014526 8 315 1.6 6.4 0.13 0.71 0.71 91 1009.6
20260506014007 8 279 1.6 4.8 0.13 0.71 0.71 91 1009.3
20260506013503 8 292 0.0 6.4 0.13 0.71 0.71 91 1009.2
20260506013022 8 295 0.0 9.7 0.13 0.71 0.71 91 1009.2
20260506012507 8 277 1.6 9.7 0.13 0.71 0.71 90 1009.2
20260506012012 8 289 3.2 11.3 0.10 0.69 0.69 90 1008.9
20260506011516 8 302 3.2 11.3 0.10 0.69 0.69 89 1009.0
20260506011006 9 289 1.6 11.3 0.10 0.69 0.69 87 1009.1
20260506010506 9 278 3.2 11.3 0.05 0.64 0.64 86 1009.2
20260506010030 10 325 3.2 14.5 0.05 0.64 0.64 84 1008.9
20260506005508 10 297 3.2 17.7 0.00 0.58 0.58 83 1008.8
20260506005006 10 285 8.0 24.1 0.00 0.58 0.58 80 1008.7
20260506004510 10 297 6.4 24.1 0.00 0.58 0.58 79 1008.6
20260506004007 11 301 9.7 20.9 0.00 0.58 0.58 79 1008.6
20260506003512 11 278 6.4 20.9 0.00 0.58 0.58 77 1008.5
20260506003004 11 324 6.4 19.3 0.00 0.58 0.58 78 1008.4
20260506002503 11 269 6.4 19.3 0.00 0.58 0.58 77 1008.0
20260506002004 11 311 4.8 16.1 0.00 0.58 0.58 78 1007.9
20260506001510 11 311 3.2 20.9 0.00 0.58 0.58 78 1008.1
20260506001005 11 322 4.8 20.9 0.00 0.58 0.58 78 1008.0
20260506000504 12 302 6.4 25.7 0.00 0.58 0.58 79 1007.8
20260506000018 12 296 9.7 25.7 0.00 0.58 0.58 79 1007.7
20260505235503 12 270 9.7 19.3 0.00 0.58 0.58 80 1007.6
20260505235007 12 291 9.7 16.1 0.00 0.58 0.58 80 1007.5
20260505234533 12 300 8.0 16.1 0.00 0.58 0.58 81 1007.4
20260505234007 12 282 6.4 16.1 0.00 0.58 0.58 82 1007.3
20260505233504 12 295 8.0 16.1 0.00 0.58 0.58 81 1007.1
20260505233018 12 323 3.2 19.3 0.00 0.58 0.58 82 1007.0
20260505232508 12 306 8.0 19.3 0.00 0.58 0.58 81 1006.9
20260505232003 13 306 3.2 14.5 0.00 0.58 0.58 80 1006.8
20260505231508 13 303 3.2 19.3 0.00 0.58 0.58 79 1006.6
20260505231003 13 225 11.3 19.3 0.00 0.58 0.58 79 1006.9
20260505230511 13 325 3.2 17.7 0.00 0.58 0.58 79 1006.9
20260505230010 13 344 6.4 17.7 0.00 0.58 0.58 78 1006.9
20260505225508 13 286 6.4 16.1 0.00 0.58 0.58 78 1006.8
20260505225006 13 348 4.8 17.7 0.00 0.58 0.58 78 1006.9
20260505224533 14 241 8.0 17.7 0.00 0.58 0.58 77 1006.7
20260505224004 14 330 4.8 24.1 0.00 0.58 0.58 77 1006.6
20260505223516 14 309 11.3 24.1 0.00 0.58 0.58 77 1006.5
20260505223022 14 296 4.8 17.7 0.00 0.58 0.58 76 1006.2
20260505222507 14 310 8.0 17.7 0.00 0.58 0.58 76 1006.1
20260505222011 14 270 3.2 17.7 0.00 0.58 0.58 77 1006.0
20260505221523 14 315 6.4 17.7 0.00 0.58 0.58 77 1006.1
20260505221013 14 297 4.8 16.1 0.00 0.58 0.58 77 1006.1
20260505220504 15 310 4.8 17.7 0.00 0.58 0.58 78 1006.1
20260505220009 15 174 6.4 17.7 0.00 0.58 0.58 78 1006.0
20260505215504 15 278 4.8 20.9 0.00 0.58 0.58 77 1006.1
20260505215005 15 352 11.3 22.5 0.00 0.58 0.58 77 1006.1
20260505214520 15 292 9.7 22.5 0.00 0.58 0.58 79 1006.0
20260505214005 15 277 4.8 11.3 0.00 0.58 0.58 80 1006.0
20260505213505 15 250 4.8 12.9 0.00 0.58 0.58 81 1005.8
20260505213013 15 202 6.4 20.9 0.00 0.58 0.58 80 1005.7
20260505212508 15 271 4.8 20.9 0.00 0.58 0.58 81 1005.7
20260505212009 14 262 3.2 16.1 0.00 0.58 0.58 82 1005.6
20260505211526 14 247 3.2 16.1 0.00 0.58 0.58 82 1005.6
20260505211004 14 352 3.2 14.5 0.00 0.58 0.58 82 1005.5
20260505210508 14 278 8.0 24.1 0.00 0.58 0.58 82 1005.7
20260505210028 14 300 8.0 24.1 0.00 0.58 0.58 82 1005.7
20260505205503 14 259 6.4 17.7 0.00 0.58 0.58 82 1005.7
20260505205003 14 244 8.0 17.7 0.00 0.58 0.58 83 1005.6
20260505204513 14 287 6.4 27.4 0.00 0.58 0.58 84 1005.9
20260505204007 14 270 12.9 22.5 0.00 0.58 0.58 84 1005.8
20260505203504 14 262 6.4 19.3 0.00 0.58 0.58 84 1005.8
20260505203031 13 343 8.0 19.3 0.03 0.58 0.58 85 1005.8
20260505202506 14 257 8.0 19.3 0.03 0.58 0.58 86 1005.8